Location: Unspecified
(0.0000°N, 0.0000°E)
Time: 09:15:51
(UTC+02:00)

ADEOS II - Visible Passes

Search period start: 30 May 2017 00:00
Search period end: 09 June 2017 00:00
Orbit: 799 x 802 km, 98.4° (Epoch: 29 May)

Date Brightness Start Highest point End Pass type
(mag) Time Alt. Az. Time Alt. Az. Time Alt. Az.
30 May 3.9 05:17:14 10° NNE 05:19:24 25° NNE 05:19:24 25° NNE visible
31 May 4.6 04:51:25 10° NE 04:52:41 17° NE 04:52:41 17° NE visible
31 May 4.1 06:32:47 10° NW 06:33:38 12° NW 06:33:38 12° NW visible
01 Jun 3.7 06:04:44 10° NNW 06:06:54 21° NW 06:06:54 21° NW visible
02 Jun 3.6 05:37:46 10° N 05:40:12 28° N 05:40:12 28° N visible
03 Jun 4.0 05:11:26 10° NNE 05:13:28 24° NNE 05:13:28 24° NNE visible
04 Jun 4.7 04:45:46 10° NE 04:46:45 15° NE 04:46:45 15° NE visible
04 Jun 4.0 06:26:25 10° NW 06:27:42 14° NW 06:27:42 14° NW visible
05 Jun 3.6 05:58:41 10° NNW 06:00:58 23° NNW 06:00:58 23° NNW visible
06 Jun 3.6 05:31:51 10° N 05:34:14 28° N 05:34:14 28° N visible
07 Jun 4.2 05:05:40 10° NNE 05:07:31 22° NNE 05:07:31 22° NNE visible
08 Jun 4.9 04:40:09 10° NE 04:40:47 13° NE 04:40:47 13° NE visible
08 Jun 3.9 06:20:09 10° NNW 06:21:44 16° NW 06:21:44 16° NW visible
